Find Tiantong-1 03 xing

NORAD ID: 47321 Int'l Des: 2021-003 Owner: CAST Country: CN operational
HEOCIRCULARGSO

实时位置

正在加载3D地球...

关于 Tiantong-1 03 xing

正在加载描述...

即将过境

Passes for default location (London). Set your location on the main map for personalized predictions.

高度历史

Loading altitude history...

两行轨道根数

1 47321U 21003A 26107.00382237 -.00000151 00000-0 00000-0 0 9992
2 47321 1.8102 335.5739 0003162 57.9788 254.5159 1.00271402 19347
Epoch: Apr 17, 2026 • Age: 9 hours

当前状态

高度 35773.8 km
速度 3.08 km/s
星下点 1.79°N, 81.56°E
发射日期 Jan 19, 2021
运行时间 5.2 years
类型 other

技术详情

分类 Payload
质量 5200.00 kg
干质量 2500.00 kg
总质量 5200.00 kg
长度 5.00 m
直径 2.50 m
跨度 30.00 m
形状 Box + 2 Pan
制造商 CAST
平台类型 DFH-4
阶段状态 In Orbit
所有者/国家 CAST/CN

Most Searched